Regional Weather Roundup
Issued by NWS

Home | Current Version | Previous Version | Graphics & Text | Print | Product List | Glossary Off
Versions: 1 2 3 4 5 6 7 8 9 10 11 12 13 14 15 16 17 18 19 20 21 22 23 24 25 26 27 28 29 30 31 32 33 34 35 36 37 38 39 40 41 42 43 44 45 46 47 48 49 50

000
ASUS43 KOAX 220102
RWRNE

WEATHER ROUNDUP FOR NEBRASKA
NATIONAL WEATHER SERVICE OMAHA NE
800 PM CDT SUN SEP 21 2014

NOTES: SATELLITE DATA IS BEING USED TO AUGMENT CLOUD COVER ABOVE
       12000 FEET.
       "FAIR" INDICATES FEW OR NO CLOUDS BELOW 12,000 FEET WITH NO
       SIGNIFICANT WEATHER AND/OR OBSTRUCTIONS TO VISIBILITY.

  * THESE STATIONS DO NOT REPORT WEATHER SUCH AS RAIN...SNOW OR FOG.

NEZ001>004-019>022-054>056-220200-
NEBRASKA PANHANDLE

CITY           SKY/WX    TMP DP  RH WIND       PRES   REMARKS
SCOTTSBLUFF    MOCLDY    67  43  41 E12       30.26F
ALLIANCE       CLOUDY    64  43  46 S7        30.28S
CHADRON        MOCLDY    65  42  43 E7        30.24S
KIMBALL        MOCLDY    65  40  40 SE8       30.30S
SIDNEY         CLOUDY    68  39  34 E10       30.31S
$$

NEZ057>060-069>072-079>082-220200-
SOUTHWEST NEBRASKA

CITY           SKY/WX    TMP DP  RH WIND       PRES   REMARKS
NORTH PLATTE   CLEAR     60  43  53 CALM      30.28R
IMPERIAL       PTCLDY    66  42  41 SE5       30.28S
LEXINGTON      CLEAR     64  45  50 E6        30.27S
MCCOOK         CLEAR     65  43  44 E7        30.26F
OGALLALA       PTCLDY    67  46  47 E5        30.28S
$$

NEZ005>010-023>029-035>040-094-220200-
NORTH CENTRAL NEBRASKA

CITY           SKY/WX    TMP DP  RH WIND       PRES   REMARKS
VALENTINE      CLEAR     63  38  39 NE5       30.27S
AINSWORTH      CLEAR     60  45  58 CALM      30.27S
BROKEN BOW     CLEAR     59  44  57 CALM      30.27R
O`NEILL        CLEAR     62  48  61 CALM      30.26S HAZE
ORD            CLEAR     58  46  64 CALM      30.24F
THEDFORD       CLEAR     63  37  38 E3        30.28F
$$

NEZ041-046>049-061>064-073>077-083>087-220200-
SOUTH CENTRAL NEBRASKA

CITY           SKY/WX    TMP DP  RH WIND       PRES   REMARKS
GRAND ISLAND   CLEAR     62  47  57 NE6       30.25S
AURORA         CLEAR     57  51  79 N3        30.25S
HASTINGS       CLEAR     61  45  55 CALM      30.25S
HEBRON         CLEAR     63  45  51 CALM      30.24R
HOLDREGE       CLEAR     59  46  62 CALM      30.26F
KEARNEY *      CLEAR     63  45  51 NE6       30.27S
YORK           CLEAR     59  50  72 N3        30.25R
$$

NEZ011>018-030>034-042>045-220200-
NORTHEAST NEBRASKA

CITY           SKY/WX    TMP DP  RH WIND       PRES   REMARKS
NORFOLK        CLEAR     62  46  55 NE3       30.24S
ALBION         CLEAR     59  47  64 N6        30.26R
BLAIR          CLEAR     64  48  56 NW6       30.22S
COLUMBUS *     CLEAR     55  46  71 NE5       30.25S
FREMONT        CLEAR     63  48  58 CALM      30.23S
TEKAMAH        CLEAR     59  50  72 NW6       30.22R
WAYNE          CLEAR     55  49  80 CALM      30.25R
$$

NEZ050>053-065>068-078-088>093-220200-
SOUTHEAST NEBRASKA

CITY           SKY/WX    TMP DP  RH WIND       PRES   REMARKS
LINCOLN        CLEAR     60  48  64 CALM      30.24R
OMAHA EPPLEY   PTCLDY    62  49  62 N3        30.22R
BEATRICE       CLEAR     63  47  55 N3        30.23R
FALLS CITY     CLEAR     63  49  60 N5        30.20R
NEBRASKA CITY    N/A     63  42  47 CALM      30.23R
PLATTSMOUTH    CLEAR     62  46  55 N3        30.22R
$$

NEZ044-045-051>053-067-220200-
OMAHA AREA

CITY           SKY/WX    TMP DP  RH WIND       PRES   REMARKS
OMAHA EPPLEY   PTCLDY    62  49  62 N3        30.22R
BLAIR          CLEAR     64  48  56 NW6       30.22S
FREMONT        CLEAR     63  48  58 CALM      30.23S
MILLARD        CLEAR     65  49  55 CALM      30.22R
OFFUTT AFB     CLEAR     63  51  64 N6        30.21R
PLATTSMOUTH    CLEAR     62  46  55 N3        30.22R
WAHOO          FAIR      59  49  70 N6        30.23S
$$



USA.gov is the U.S. government's official web portal to all federal, state and local government web resources and services.